Regional Weather Roundup
Issued by NWS Portland, ME

Home | Current Version | Previous Version | Text Only | Print | Product List | Glossary On
Versions: 1 2 3 4 5 6 7 8 9 10 11 12 13 14 15 16 17 18 19 20 21 22 23 24 25 26 27 28 29 30 31 32 33 34 35 36 37 38 39 40 41 42 43 44 45 46 47 48 49 50
000
ASUS41 KGYX 230510
RWRGYX
WEATHER ROUNDUP FOR MAINE AND NEW HAMPSHIRE
NATIONAL WEATHER SERVICE GRAY ME
100 AM EDT SUN APR 23 2017

MEZ002-005-006-010-012-015-018-020-021-024-026-027-029-230600-
MAINE

CITY           SKY/WX    TMP DP  RH WIND       PRES   REMARKS
PORTLAND       CLOUDY    39  37  92 NW5       29.97F
SANFORD        CLOUDY    40  39  97 CALM      29.97S
BAR HARBOR     CLOUDY    36  35  96 CALM      29.94S
WISCASSET      CLOUDY    40  38  93 CALM      29.97S
ROCKLAND       CLOUDY    38  37  97 CALM      29.95S
FRYEBURG       CLOUDY    34  34 100 CALM      29.96S FOG
LEWISTONAUBURN CLOUDY    37  37 100 CALM      29.96S
AUGUSTA        CLOUDY    37  35  92 NW5       29.95S
WATERVILLE     CLOUDY    38  37  97 CALM      29.92S
BANGOR         CLOUDY    37  36  96 N6        29.94F FOG
GREENVILLE       N/A     32  32 100 CALM      29.88S
MILLINOCKET    CLOUDY    33  33 100 CALM      29.95S
HOULTON        FOG       33  33 100 N3        29.92F VSB 1/2
PRESQUE ISLE   CLOUDY    33  31  92 CALM      29.94F
FRENCHVILLE    CLOUDY    32  30  92 CALM      29.91F
CARIBOU        CLOUDY    33  31  92 CALM      29.92F FOG
$$

NHZ002-005-008-009-011-012-014-230600-
NEW HAMPSHIRE

CITY           SKY/WX    TMP DP  RH WIND       PRES   REMARKS
PORTSMOUTH     CLOUDY    42  38  88 CALM      29.96F
ROCHESTER      CLOUDY    40  37  89 CALM      29.96S
NASHUA         CLEAR     39  39 100 CALM      29.99R
MANCHESTER     PTCLDY    42  38  85 CALM      29.97S
CONCORD        CLEAR     40  36  86 NW7       29.98S
LACONIA        PTCLDY    41  36  82 W5        29.97S
PLYMOUTH       CLOUDY    44  36  75 W7        29.98R
BERLIN         MOCLDY    37  34  89 CALM      29.95R
WHITEFIELD     CLOUDY    41  36  82 W3        29.98S
JAFFREY        CLEAR     39  39 100 CALM      29.99R
KEENE          CLEAR     42  37  82 N6        30.01R
LEBANON        PTCLDY    37  36  96 S3        30.00S
MT WASHINGTON  SNOWSHWR  23  23 100 NW43        N/A  VSB 0   WCI   3
$$

VTZ005-007-008-230600-
VERMONT

CITY           SKY/WX    TMP DP  RH WIND       PRES   REMARKS
ST JOHNSBURY     N/A     41  39  93 MISG      29.98S
MONTPELIER     CLOUDY    38  37  97 VRB3      30.03S
BURLINGTON     CLOUDY    44  39  82 CALM      30.04R
$$

MAZ007-012-024-CTZ003-RIZ002-NYZ038-NYZ072-230600-
SOUTHERN NEW ENGLAND AND NY

CITY           SKY/WX    TMP DP  RH WIND       PRES   REMARKS
BOSTON         CLOUDY    44  41  89 CALM      30.00R
WORCESTER      CLOUDY    44  38  79 NW10      29.98R
NANTUCKET      CLOUDY    43  38  82 N14       29.96R
PROVIDENCE     CLOUDY    44  43  96 N5        30.00R
HARTFORD       MOCLDY    48  40  73 N6        30.02R
ALBANY         MOCLDY    45  34  65 NW9       30.06R
NEW YORK CITY  CLOUDY    52  38  58 N13       30.02R
$$

ANZ081-ANZ082-ANZ150-NHZ014-MEZ023>029-230600-
COASTAL MARINE OBSERVATIONS

STATION/POSITION TIME  TEMP    WIND        PRES    WAVE
                       AIR SEA DIR/SP/G            HT/PER
                 (UTC) (F)     (DEG/KT/KT) (MB)    (FT/S)
MOUNT DESERT ROC 0500   37                 1013.3F
MATINICUS ROCK   0400   38     360/ 10/ 10 1013.3F
ISLE OF SHOALS   0400   42      10/  5/  5 1014.9R
JEFFREYS LEDGE   0406      43                N/A     7/ 8
CASHES LEDGE BUO 0450   39 42              1013.8R   7/ 8
GEORGES BANK BUO 0350   44 43              1008.2    6/11
$$

.............KEY..............
   WCI - WIND CHILL
   TC  - TEMPERATURE IN CELSIUS
   VSB - VISIBILITY IN MILES
   HX  - HEAT INDEX
   FAIR- INDICATES FEW OR NO CLOUDS BELOW 12,000 FT, WITH NO
         SIGNIFICANT WEATHER AND/OR OBSTRUCTIONS TO VISIBILITY.





USA.gov is the U.S. government's official web portal to all federal, state and local government web resources and services.